GW1031 Weather Reports


Display with metric or nautical units.
time (UTC)temp
F
wind
direction
speed
MPH
gust
MPH
rain 1hr
in
rain 24hr
in
rain mn
in
humidity
%
barometer
mb
20260902171141 75 169 0.0 0.0 0.00 0.00 0.00 41 1024.7
20260902170637 74 184 0.0 1.0 0.00 0.00 0.00 43 1024.8
20260902170132 73 198 1.0 2.0 0.00 0.00 0.00 45 1024.8
20260902165627 72 241 1.0 1.0 0.00 0.00 0.00 44 1024.9
20260902165127 71 201 0.0 1.0 0.00 0.00 0.00 46 1024.8
20260902164622 70 133 0.0 0.0 0.00 0.00 0.00 51 1024.7
20260902164121 70 72 0.0 1.0 0.00 0.00 0.00 48 1024.9
20260902163616 69 199 0.0 0.0 0.00 0.00 0.00 48 1025.2
20260902163115 69 165 1.0 2.0 0.00 0.00 0.00 47 1025.3
20260902162614 69 145 0.0 0.0 0.00 0.00 0.00 49 1025.1
20260902162109 69 229 1.0 1.0 0.00 0.00 0.00 51 1025.3
20260902161604 68 183 0.0 1.0 0.00 0.00 0.00 52 1025.2
20260902161100 68 187 0.0 1.0 0.00 0.00 0.00 53 1025.4
20260902160556 67 161 0.0 0.0 0.00 0.00 0.00 53 1025.1
20260902160051 66 188 0.0 0.0 0.00 0.00 0.00 55 1025.1
20260902155544 66 146 0.0 0.0 0.00 0.00 0.00 58 1025.4
20260902155043 65 110 0.0 0.0 0.00 0.00 0.00 54 1025.6
20260902154538 65 140 0.0 0.0 0.00 0.00 0.00 57 1025.4
20260902154033 65 95 1.0 1.0 0.00 0.00 0.00 53 1025.6
20260902153531 64 197 0.0 0.0 0.00 0.00 0.00 58 1025.6
20260902153028 64 188 0.0 0.0 0.00 0.00 0.00 59 1025.7
20260902152524 64 139 1.0 1.0 0.00 0.00 0.00 62 1025.7
20260902152019 63 107 1.0 1.0 0.00 0.00 0.00 62 1025.8
20260902151515 62 176 0.0 0.0 0.00 0.00 0.00 63 1025.8
20260902151014 62 94 1.0 1.0 0.00 0.00 0.00 63 1025.7
20260902150509 62 129 0.0 0.0 0.00 0.00 0.00 67 1025.8
20260902150004 62 143 0.0 1.0 0.00 0.00 0.00 66 1025.8
20260902145459 61 141 0.0 1.0 0.00 0.00 0.00 68 1025.8
20260902144953 60 170 0.0 0.0 0.00 0.00 0.00 65 1025.9
20260902144449 60 159 0.0 0.0 0.00 0.00 0.00 70 1025.9
20260902143944 59 128 1.0 1.0 0.00 0.00 0.00 72 1025.8
20260902143440 59 93 1.0 2.0 0.00 0.00 0.00 72 1025.9
20260902142934 58 173 0.0 0.0 0.00 0.00 0.00 72 1026.0
20260902142430 57 157 0.0 0.0 0.00 0.00 0.00 72 1026.2
20260902141926 56 139 0.0 0.0 0.00 0.00 0.00 77 1025.9
20260902141421 55 114 0.0 0.0 0.00 0.00 0.00 79 1026.2
20260902140920 56 91 0.0 1.0 0.00 0.00 0.00 79 1026.0
20260902140416 57 106 0.0 0.0 0.00 0.00 0.00 75 1025.8
20260902135910 54 147 0.0 0.0 0.00 0.00 0.00 81 1026.0
20260902135406 52 127 0.0 0.0 0.00 0.00 0.00 87 1025.8
20260902134904 51 163 0.0 0.0 0.00 0.00 0.00 89 1026.3
20260902134400 50 134 0.0 0.0 0.00 0.00 0.00 91 1026.0
20260902133855 49 136 0.0 0.0 0.00 0.00 0.00 91 1026.3
20260902133355 48 163 0.0 0.0 0.00 0.00 0.00 92 1025.9
20260902132850 48 167 0.0 0.0 0.00 0.00 0.00 93 1025.9
20260902132345 48 156 0.0 0.0 0.00 0.00 0.00 94 1025.9
20260902131841 48 155 0.0 0.0 0.00 0.00 0.00 94 1025.8
20260902131338 48 127 0.0 0.0 0.00 0.00 0.00 94 1025.7
20260902130836 48 166 0.0 0.0 0.00 0.00 0.00 94 1025.7
20260902130333 48 159 0.0 0.0 0.00 0.00 0.00 94 1025.8
20260902125827 48 159 0.0 0.0 0.00 0.00 0.00 93 1025.9
20260902125323 48 160 0.0 0.0 0.00 0.00 0.00 93 1025.7
20260902124819 48 170 0.0 0.0 0.00 0.00 0.00 94 1025.9
20260902124315 48 156 0.0 0.0 0.00 0.00 0.00 93 1025.4
20260902123810 48 143 0.0 0.0 0.00 0.00 0.00 93 1025.8
20260902123306 48 150 0.0 0.0 0.00 0.00 0.00 92 1025.8
20260902122805 48 157 0.0 0.0 0.00 0.00 0.00 91 1025.6
20260902122305 49 158 0.0 0.0 0.00 0.00 0.00 91 1025.8
20260902121800 48 173 0.0 0.0 0.00 0.00 0.00 91 1025.6
20260902121255 49 173 0.0 0.0 0.00 0.00 0.00 90 1025.6
20260902120751 49 165 0.0 0.0 0.00 0.00 0.00 89 1025.6
20260902120247 50 147 0.0 0.0 0.00 0.00 0.00 90 1025.6
20260902115742 49 170 0.0 0.0 0.00 0.00 0.00 90 1025.3
20260902115238 50 150 0.0 0.0 0.00 0.00 0.00 90 1025.4
20260902114734 50 148 0.0 0.0 0.00 0.00 0.00 90 1024.9
20260902114230 49 126 0.0 0.0 0.00 0.00 0.00 89 1025.8
20260902113730 49 171 0.0 0.0 0.00 0.00 0.00 90 1025.7
20260902113225 49 166 0.0 0.0 0.00 0.00 0.00 90 1025.4
20260902112724 49 166 0.0 0.0 0.00 0.00 0.00 89 1025.6
20260902112222 49 166 0.0 0.0 0.00 0.00 0.00 88 1025.3
20260902111717 50 152 0.0 0.0 0.00 0.00 0.00 89 1025.2
20260902111213 50 133 0.0 0.0 0.00 0.00 0.00 89 1025.3
20260902110709 50 159 0.0 0.0 0.00 0.00 0.00 88 1025.2
20260902110204 50 155 0.0 0.0 0.00 0.00 0.00 88 1025.3
20260902105704 51 155 0.0 0.0 0.00 0.00 0.00 87 1025.3
20260902105159 51 143 0.0 0.0 0.00 0.00 0.00 86 1025.3
20260902104654 51 168 0.0 0.0 0.00 0.00 0.00 82 1024.9
20260902104150 50 166 0.0 0.0 0.00 0.00 0.00 84 1025.3
20260902103649 50 159 0.0 0.0 0.00 0.00 0.00 86 1025.2
20260902103144 50 157 0.0 0.0 0.00 0.00 0.00 87 1025.3
20260902102641 51 128 0.0 0.0 0.00 0.00 0.00 88 1025.3
20260902102138 51 148 0.0 0.0 0.00 0.00 0.00 87 1025.4
20260902101633 51 91 0.0 1.0 0.00 0.00 0.00 82 1025.4
20260902101132 51 181 0.0 0.0 0.00 0.00 0.00 87 1025.4
20260902100627 51 170 0.0 0.0 0.00 0.00 0.00 86 1025.4
20260902100122 51 170 0.0 0.0 0.00 0.00 0.00 86 1025.4
20260902095621 51 167 0.0 0.0 0.00 0.00 0.00 86 1025.4
20260902095120 51 157 0.0 0.0 0.00 0.00 0.00 86 1025.3
20260902094616 52 144 0.0 0.0 0.00 0.00 0.00 86 1025.2
20260902094113 52 115 0.0 1.0 0.00 0.00 0.00 87 1025.4
20260902093612 51 151 0.0 0.0 0.00 0.00 0.00 86 1025.2
20260902093107 51 183 0.0 0.0 0.00 0.00 0.00 87 1025.3
20260902092607 51 163 0.0 0.0 0.00 0.00 0.00 87 1025.3
20260902092102 51 193 0.0 0.0 0.00 0.00 0.00 87 1025.3
20260902091557 51 154 0.0 0.0 0.00 0.00 0.00 88 1024.9
20260902091053 52 148 0.0 0.0 0.00 0.00 0.00 87 1025.1
20260902090549 52 142 0.0 0.0 0.00 0.00 0.00 88 1025.3
20260902090048 52 164 0.0 0.0 0.00 0.00 0.00 87 1025.1
20260902085542 52 149 0.0 0.0 0.00 0.00 0.00 88 1025.3
20260902085037 52 151 0.0 0.0 0.00 0.00 0.00 88 1025.2
20260902084534 52 172 0.0 0.0 0.00 0.00 0.00 86 1025.6
20260902084029 52 173 0.0 0.0 0.00 0.00 0.00 84 1025.6
20260902083519 52 173 0.0 0.0 0.00 0.00 0.00 83 1025.4
20260902083013 52 153 0.0 0.0 0.00 0.00 0.00 85 1025.4
20260902082509 52 165 0.0 0.0 0.00 0.00 0.00 84 1025.6
20260902082005 53 164 0.0 0.0 0.00 0.00 0.00 84 1025.3
20260902081501 53 137 0.0 0.0 0.00 0.00 0.00 85 1025.2
20260902080955 53 135 0.0 0.0 0.00 0.00 0.00 84 1025.4
20260902080451 52 172 0.0 0.0 0.00 0.00 0.00 81 1025.4
20260902075951 52 168 0.0 0.0 0.00 0.00 0.00 84 1025.6
20260902075447 52 150 0.0 0.0 0.00 0.00 0.00 85 1025.7
20260902074942 52 147 0.0 0.0 0.00 0.00 0.00 84 1025.7
20260902074438 53 147 0.0 0.0 0.00 0.00 0.00 83 1025.8
20260902073932 53 118 1.0 1.0 0.00 0.00 0.00 83 1025.7
20260902073429 52 147 0.0 0.0 0.00 0.00 0.00 81 1025.7
20260902072925 52 144 0.0 0.0 0.00 0.00 0.00 82 1025.7
20260902072420 52 136 0.0 0.0 0.00 0.00 0.00 82 1025.7
20260902071917 52 143 0.0 0.0 0.00 0.00 0.00 84 1025.6
20260902071416 52 181 0.0 0.0 0.00 0.00 0.00 86 1025.6
20260902070913 52 161 0.0 0.0 0.00 0.00 0.00 85 1025.4
20260902070408 51 151 0.0 0.0 0.00 0.00 0.00 86 1025.4
20260902065907 51 158 0.0 0.0 0.00 0.00 0.00 86 1025.6
20260902065402 51 150 0.0 0.0 0.00 0.00 0.00 87 1025.4
20260902064857 51 146 0.0 0.0 0.00 0.00 0.00 88 1025.6
20260902064353 51 115 0.0 0.0 0.00 0.00 0.00 89 1025.7
20260902063848 51 178 0.0 0.0 0.00 0.00 0.00 88 1025.4
20260902063343 51 178 0.0 0.0 0.00 0.00 0.00 87 1025.6
20260902062842 51 169 0.0 0.0 0.00 0.00 0.00 86 1025.6
20260902062337 51 101 1.0 1.0 0.00 0.00 0.00 85 1025.4
20260902061836 51 159 0.0 0.0 0.00 0.00 0.00 85 1025.4
20260902061332 52 159 0.0 0.0 0.00 0.00 0.00 85 1025.4
20260902060828 52 150 0.0 0.0 0.00 0.00 0.00 84 1025.4
20260902060324 52 161 0.0 0.0 0.00 0.00 0.00 85 1025.4
20260902055819 52 152 0.0 0.0 0.00 0.01 0.01 86 1025.3
20260902055316 52 160 0.0 0.0 0.00 0.01 0.01 85 1025.3
20260902054816 53 160 0.0 0.0 0.00 0.01 0.01 83 1025.4
20260902054311 53 160 0.0 0.0 0.00 0.01 0.01 82 1025.2
20260902053806 53 151 0.0 0.0 0.00 0.01 0.01 82 1025.3
20260902053301 53 160 0.0 0.0 0.00 0.01 0.01 81 1025.4
20260902052800 53 160 0.0 0.0 0.00 0.01 0.01 79 1025.3
20260902052255 53 160 0.0 0.0 0.00 0.01 0.01 77 1025.1
20260902051755 54 160 0.0 0.0 0.00 0.01 0.01 78 1025.2
20260902051249 54 151 0.0 0.0 0.00 0.01 0.01 78 1025.1
20260902050745 54 176 0.0 0.0 0.00 0.01 0.01 78 1024.9
20260902050240 54 148 0.0 0.0 0.00 0.01 0.01 78 1025.1
20260902045739 54 148 0.0 0.0 0.00 0.01 0.01 76 1024.8
20260902045236 55 142 0.0 0.0 0.00 0.01 0.01 76 1025.2
20260902044732 55 174 0.0 0.0 0.00 0.01 0.01 76 1024.9
20260902044226 55 149 0.0 0.0 0.00 0.01 0.01 77 1024.7
20260902043721 55 157 0.0 0.0 0.00 0.01 0.01 74 1024.9
20260902043217 56 157 0.0 0.0 0.00 0.01 0.01 74 1024.8
20260902042716 56 187 0.0 0.0 0.00 0.01 0.01 73 1024.9
20260902042211 57 150 0.0 0.0 0.00 0.01 0.01 74 1024.7
20260902041706 57 150 0.0 0.0 0.00 0.01 0.01 70 1024.8
20260902041201 58 167 0.0 0.0 0.00 0.01 0.01 68 1024.6
20260902040701 58 143 0.0 0.0 0.00 0.01 0.01 69 1024.7
20260902040156 59 182 0.0 0.0 0.00 0.01 0.01 63 1024.6
20260902035654 59 176 0.0 0.0 0.00 0.01 0.01 61 1024.5
20260902035150 59 155 0.0 0.0 0.00 0.01 0.01 61 1024.3
20260902034649 59 191 0.0 0.0 0.00 0.01 0.01 61 1024.1
20260902034148 59 146 0.0 0.0 0.00 0.01 0.01 64 1024.3
20260902033647 59 176 0.0 0.0 0.00 0.01 0.01 59 1024.2
20260902033143 59 158 0.0 0.0 0.00 0.01 0.01 59 1023.8
20260902032641 60 158 0.0 0.0 0.00 0.01 0.01 59 1024.1
20260902032136 61 201 0.0 0.0 0.00 0.01 0.01 58 1023.8
20260902031630 62 201 0.0 0.0 0.00 0.01 0.01 57 1023.8
20260902031126 62 210 0.0 1.0 0.00 0.01 0.01 57 1023.8
20260902030621 63 185 0.0 0.0 0.00 0.01 0.01 54 1023.8
20260902030121 64 116 0.0 1.0 0.00 0.01 0.01 53 1023.6
20260902025620 64 66 1.0 1.0 0.00 0.01 0.01 53 1023.7
20260902025116 65 138 0.0 1.0 0.00 0.01 0.01 48 1023.1
20260902024612 66 201 0.0 0.0 0.00 0.01 0.01 49 1023.2
20260902024106 66 205 0.0 1.0 0.00 0.01 0.01 48 1023.2
20260902023602 68 118 0.0 0.0 0.00 0.01 0.01 50 1023.4
20260902023057 68 190 0.0 0.0 0.00 0.01 0.01 44 1023.0
20260902022556 68 192 0.0 0.0 0.00 0.01 0.01 44 1023.1
20260902022052 68 202 0.0 0.0 0.00 0.01 0.01 45 1022.9
20260902021547 68 245 2.0 3.0 0.00 0.01 0.01 44 1022.6
20260902021042 69 197 0.0 1.0 0.00 0.01 0.01 44 1022.8
20260902020532 69 200 1.0 2.0 0.00 0.01 0.01 44 1022.8
20260902020028 69 242 2.0 3.0 0.00 0.01 0.01 44 1022.5
20260902015524 69 187 0.0 1.0 0.00 0.01 0.01 45 1022.8
20260902015019 70 170 0.0 1.0 0.00 0.01 0.01 44 1022.6
20260902014515 70 179 1.0 1.0 0.00 0.01 0.01 43 1022.1
20260902014010 70 144 0.0 0.0 0.00 0.01 0.01 41 1022.3
20260902013505 70 141 0.0 0.0 0.00 0.01 0.01 42 1022.3
20260902013000 68 192 0.0 0.0 0.00 0.01 0.01 48 1022.1
20260902012455 68 193 0.0 0.0 0.00 0.01 0.01 48 1021.8
20260902011951 68 196 0.0 0.0 0.00 0.01 0.01 48 1022.1
20260902011447 69 169 0.0 0.0 0.00 0.01 0.01 46 1022.3
20260902010946 69 153 0.0 0.0 0.00 0.01 0.01 45 1022.4
20260902010441 70 191 0.0 0.0 0.00 0.01 0.01 44 1022.4
20260902005940 71 187 0.0 0.0 0.00 0.01 0.01 44 1022.4
20260902005439 72 158 0.0 0.0 0.00 0.01 0.01 42 1022.1
20260902004936 74 199 0.0 0.0 0.00 0.01 0.01 38 1022.1
20260902004435 75 189 0.0 0.0 0.00 0.01 0.01 37 1021.9
20260902003931 76 160 0.0 1.0 0.00 0.01 0.01 35 1021.8
20260902003430 76 267 3.0 3.0 0.00 0.01 0.01 34 1021.9
20260902002926 76 307 2.0 3.0 0.00 0.01 0.01 35 1021.8
20260902002421 76 207 1.0 1.0 0.00 0.01 0.01 35 1021.9
20260902001920 75 180 0.0 0.0 0.00 0.01 0.01 35 1021.9
20260902001415 76 186 0.0 0.0 0.00 0.01 0.01 36 1021.9
20260902000911 77 138 0.0 1.0 0.00 0.01 0.01 36 1021.8
20260902000407 78 83 0.0 0.0 0.00 0.01 0.01 33 1021.5
20260901235901 82 241 1.0 2.0 0.00 0.01 0.01 31 1022.0
20260901235400 84 255 2.0 2.0 0.00 0.01 0.01 30 1021.8
20260901234855 83 127 1.0 1.0 0.00 0.01 0.01 31 1022.1
20260901234350 83 163 3.0 5.0 0.00 0.01 0.01 30 1022.0
20260901233845 83 176 0.0 1.0 0.00 0.01 0.01 32 1021.9
20260901233341 82 268 1.0 2.0 0.00 0.01 0.01 32 1021.8
20260901232837 83 162 2.0 2.0 0.00 0.01 0.01 32 1021.8
20260901232331 84 51 2.0 2.0 0.00 0.01 0.01 30 1021.9
20260901231827 84 201 1.0 1.0 0.00 0.01 0.01 32 1022.0
20260901231323 84 244 2.0 2.0 0.00 0.01 0.01 29 1022.0
20260901230820 85 241 1.0 2.0 0.00 0.01 0.01 30 1021.8
20260901230319 84 246 0.0 1.0 0.00 0.01 0.01 31 1022.1
20260901225815 83 179 2.0 2.0 0.00 0.01 0.01 30 1022.3
20260901225314 85 176 1.0 1.0 0.00 0.01 0.01 30 1022.1
20260901224809 85 215 0.0 0.0 0.00 0.01 0.01 29 1022.4
20260901224306 85 207 1.0 1.0 0.00 0.01 0.01 31 1022.1
20260901223801 85 36 0.0 0.0 0.00 0.01 0.01 33 1022.4
20260901223256 85 290 1.0 1.0 0.00 0.01 0.01 29 1022.4
20260901222752 86 191 0.0 1.0 0.00 0.01 0.01 26 1022.3
20260901222248 86 227 1.0 1.0 0.00 0.01 0.01 29 1022.0
20260901221743 85 153 1.0 2.0 0.00 0.01 0.01 32 1022.1
20260901221239 84 91 1.0 1.0 0.00 0.01 0.01 37 1022.0
20260901220738 84 300 2.0 3.0 0.00 0.01 0.01 32 1022.0
20260901220233 84 259 3.0 3.0 0.00 0.01 0.01 35 1022.3
20260901215731 85 155 1.0 2.0 0.00 0.01 0.01 33 1022.1
20260901215225 84 192 3.0 5.0 0.00 0.01 0.01 32 1022.5
20260901214724 83 206 1.0 1.0 0.00 0.01 0.01 34 1022.6
20260901214218 84 158 1.0 2.0 0.00 0.01 0.01 33 1022.4
20260901213712 84 135 2.0 3.0 0.00 0.01 0.01 32 1022.8
20260901213207 84 290 2.0 2.0 0.00 0.01 0.01 35 1022.8
20260901212706 83 297 1.0 1.0 0.00 0.01 0.01 33 1022.8
20260901212203 85 110 1.0 1.0 0.00 0.01 0.01 36 1022.8
20260901211702 84 235 0.0 1.0 0.00 0.01 0.01 35 1022.6
20260901211159 83 179 2.0 2.0 0.00 0.01 0.01 33 1022.9
20260901210654 84 323 2.0 2.0 0.00 0.01 0.01 33 1023.1
20260901210150 84 288 1.0 1.0 0.00 0.01 0.01 34 1022.9
20260901205645 83 243 1.0 1.0 0.00 0.01 0.01 34 1023.1
20260901205140 82 171 2.0 2.0 0.00 0.01 0.01 33 1023.4
20260901204636 84 170 2.0 2.0 0.00 0.01 0.01 32 1023.4
20260901204131 84 252 0.0 1.0 0.00 0.01 0.01 35 1023.1
20260901203631 83 92 1.0 2.0 0.00 0.01 0.01 32 1023.4
20260901203126 82 198 0.0 1.0 0.00 0.01 0.01 35 1023.7
20260901202625 82 61 0.0 1.0 0.00 0.01 0.01 38 1023.8
20260901202121 82 143 2.0 2.0 0.00 0.01 0.01 37 1023.7
20260901201618 82 92 1.0 1.0 0.00 0.01 0.01 39 1023.7
20260901201116 81 113 2.0 2.0 0.00 0.01 0.01 38 1023.6
20260901200616 79 245 2.0 2.0 0.00 0.01 0.01 38 1024.1
20260901200111 78 130 0.0 1.0 0.00 0.01 0.01 39 1023.6
20260901195609 77 228 0.0 1.0 0.00 0.01 0.01 44 1023.8
20260901195109 76 208 0.0 0.0 0.00 0.01 0.01 41 1023.8
20260901194604 77 188 0.0 0.0 0.00 0.01 0.01 40 1024.2
20260901194059 78 102 2.0 2.0 0.00 0.01 0.01 38 1023.8
20260901193554 82 78 0.0 1.0 0.00 0.01 0.01 40 1024.1
20260901193049 82 208 2.0 2.0 0.00 0.01 0.01 38 1024.2
20260901192544 81 137 2.0 2.0 0.00 0.01 0.01 36 1024.1
20260901192040 81 189 1.0 2.0 0.00 0.01 0.01 37 1024.6
20260901191536 79 87 1.0 1.0 0.00 0.01 0.01 42 1024.1
20260901191032 80 114 0.0 1.0 0.00 0.01 0.01 37 1024.1
20260901190526 79 233 1.0 1.0 0.00 0.01 0.01 44 1024.3
20260901190026 80 159 0.0 1.0 0.00 0.01 0.01 39 1024.5
20260901185519 80 230 1.0 2.0 0.00 0.01 0.01 36 1024.2
20260901185018 80 233 1.0 2.0 0.00 0.01 0.01 38 1024.6
20260901184514 79 118 0.0 0.0 0.00 0.01 0.01 41 1024.7
20260901184009 79 123 1.0 2.0 0.00 0.01 0.01 44 1024.8
20260901183503 78 239 2.0 2.0 0.00 0.01 0.01 38 1024.9
20260901182959 78 205 1.0 2.0 0.00 0.01 0.01 38 1024.8
20260901182454 77 145 0.0 1.0 0.00 0.01 0.01 42 1024.9
20260901181948 76 167 2.0 2.0 0.00 0.01 0.01 43 1024.9
20260901181443 75 132 0.0 0.0 0.00 0.01 0.01 45 1024.9
20260901180941 75 225 0.0 1.0 0.00 0.01 0.01 46 1024.7
20260901180436 74 191 1.0 2.0 0.00 0.01 0.01 45 1024.7
20260901175934 73 200 0.0 1.0 0.00 0.01 0.01 49 1024.9
20260901175429 73 218 2.0 2.0 0.00 0.01 0.01 49 1025.1
20260901174924 73 198 0.0 0.0 0.00 0.01 0.01 50 1025.2
20260901174420 72 161 1.0 1.0 0.00 0.01 0.01 53 1025.2
20260901173916 71 96 0.0 0.0 0.00 0.01 0.01 55 1025.3
20260901173410 71 169 1.0 1.0 0.00 0.01 0.01 53 1025.1
20260901172907 71 114 2.0 2.0 0.00 0.01 0.01 53 1025.3
20260901172401 70 179 1.0 1.0 0.00 0.01 0.01 52 1025.3
20260901171859 70 103 0.0 0.0 0.00 0.01 0.01 55 1025.2